• In Netherlands
  • List of Countries
  • For 7 days
  • Water Temperature
  • Satellite Maps
  • Weather Map
  • Weather Widgets
  • user-avatar
    Login

    Hourly Weather Albany

    Today, 24 November, Friday

    Time Temperature Precipitation Wind Pressure Humidity
    00:00 0°C° 0 mm 1 mps 759 mmHg 69%
    01:00 0°C° 0 mm 1 mps 760 mmHg 69%
    02:00 0°C° 0 mm 1 mps 760 mmHg 69%
    03:00 0°C° 0 mm 1 mps 759 mmHg 69%
    04:00 0°C° 0 mm 1 mps 759 mmHg 69%
    05:00 0°C° 0 mm 1 mps 759 mmHg 70%
    06:00 0°C° 0 mm 1 mps 760 mmHg 71%
    07:00 0°C° 0 mm 1 mps 760 mmHg 73%
    08:00 +2°C° 0 mm 1 mps 759 mmHg 67%
    09:00 +4°C° 0 mm 1 mps 759 mmHg 61%
    10:00 +5°C° 0 mm 2 mps 759 mmHg 55%
    11:00 +6°C° 0 mm 2 mps 758 mmHg 52%
    12:00 +8°C° 0 mm 2 mps 758 mmHg 50%
    13:00 +9°C° 0 mm 2 mps 757 mmHg 48%
    14:00 +8°C° 0 mm 2 mps 757 mmHg 53%
    15:00 +7°C° 0 mm 2 mps 757 mmHg 59%
    16:00 +6°C° 0 mm 2 mps 756 mmHg 64%
    17:00 +5°C° 0 mm 2 mps 756 mmHg 67%
    18:00 +4°C° 0 mm 2 mps 757 mmHg 70%
    19:00 +3°C° 0 mm 2 mps 757 mmHg 73%
    20:00 +3°C° 0 mm 2 mps 757 mmHg 73%
    21:00 +2°C° 0 mm 2 mps 756 mmHg 74%
    22:00 +2°C° 0 mm 2 mps 756 mmHg 74%
    23:00 +2°C° 0 mm 2 mps 756 mmHg 74%

    Tomorrow, 25 November, Saturday

    Time Temperature Precipitation Wind Pressure Humidity
    00:00 +2°C° 0 mm 2 mps 756 mmHg 74%
    01:00 +2°C° 0 mm 2 mps 755 mmHg 74%
    02:00 +2°C° 0 mm 2 mps 755 mmHg 75%
    03:00 +2°C° 0 mm 2 mps 754 mmHg 75%
    04:00 +2°C° 0 mm 2 mps 754 mmHg 75%
    05:00 +2°C° 0 mm 2 mps 754 mmHg 76%
    06:00 +2°C° 0 mm 2 mps 754 mmHg 76%
    07:00 +2°C° 0 mm 2 mps 754 mmHg 77%
    08:00 +3°C° 0 mm 3 mps 753 mmHg 71%
    09:00 +5°C° 0 mm 3 mps 753 mmHg 65%
    10:00 +8°C° 0 mm 3 mps 753 mmHg 59%
    11:00 +9°C° 0 mm 3 mps 753 mmHg 60%
    12:00 +10°C° 0 mm 3 mps 752 mmHg 61%
    13:00 +11°C° 0 mm 3 mps 752 mmHg 62%
    14:00 +9°C° 0.3 mm 2 mps 752 mmHg 70%
    15:00 +8°C° 0.3 mm 2 mps 752 mmHg 78%
    16:00 +8°C° 0.3 mm 1 mps 751 mmHg 86%
    17:00 +8°C° 0 mm 1 mps 752 mmHg 88%
    18:00 +7°C° 0 mm 1 mps 752 mmHg 90%
    19:00 +7°C° 0 mm 1 mps 752 mmHg 92%
    20:00 +7°C° 0 mm 1 mps 752 mmHg 92%
    21:00 +7°C° 0 mm 1 mps 752 mmHg 93%
    22:00 +6°C° 0 mm 1 mps 752 mmHg 94%
    23:00 +6°C° 0.1 mm 1 mps 752 mmHg 93%

    Day after tomorrow, 26 November, Sunday

    Time Temperature Precipitation Wind Pressure Humidity
    00:00 +5°C° 0.1 mm 2 mps 752 mmHg 93%
    01:00 +5°C° 0.1 mm 2 mps 752 mmHg 92%
    02:00 +5°C° 0.1 mm 2 mps 752 mmHg 90%
    03:00 +4°C° 0.1 mm 3 mps 753 mmHg 87%
    04:00 +3°C° 0.1 mm 3 mps 753 mmHg 84%
    05:00 +3°C° 0 mm 3 mps 753 mmHg 84%
    06:00 +2°C° 0 mm 3 mps 754 mmHg 85%
    07:00 +1°C° 0 mm 4 mps 755 mmHg 85%
    08:00 +1°C° 0 mm 4 mps 755 mmHg 79%
    09:00 +1°C° 0 mm 5 mps 756 mmHg 73%
    10:00 +2°C° 0 mm 6 mps 756 mmHg 67%
    11:00 +1°C° 0 mm 6 mps 756 mmHg 65%
    12:00 +1°C° 0 mm 6 mps 756 mmHg 62%
    13:00 +1°C° 0 mm 6 mps 756 mmHg 59%
    14:00 +1°C° 0 mm 5 mps 757 mmHg 61%
    15:00 0°C° 0 mm 5 mps 757 mmHg 64%
    16:00 0°C° 0 mm 4 mps 757 mmHg 66%
    17:00 -1°C° 0 mm 4 mps 757 mmHg 68%
    18:00 0°C° 0 mm 3 mps 757 mmHg 71%
    19:00 0°C° 0 mm 3 mps 757 mmHg 73%
    20:00 0°C° 0 mm 3 mps 757 mmHg 74%
    21:00 0°C° 0 mm 3 mps 757 mmHg 76%
    22:00 0°C° 0 mm 3 mps 757 mmHg 77%
    23:00 0°C° 0 mm 3 mps 757 mmHg 79%

    27 November, Monday

    Time Temperature Precipitation Wind Pressure Humidity
    00:00 +1°C° 0 mm 2 mps 756 mmHg 81%
    01:00 +1°C° 0 mm 2 mps 756 mmHg 83%
    02:00 +1°C° 0 mm 2 mps 756 mmHg 84%
    03:00 +1°C° 0 mm 3 mps 756 mmHg 84%
    04:00 +1°C° 0 mm 3 mps 756 mmHg 85%
    05:00 +1°C° 0 mm 3 mps 756 mmHg 85%
    06:00 +2°C° 0 mm 2 mps 757 mmHg 85%
    07:00 +2°C° 0 mm 2 mps 757 mmHg 86%
    08:00 +2°C° 0 mm 3 mps 758 mmHg 78%
    09:00 +3°C° 0 mm 4 mps 758 mmHg 70%
    10:00 +3°C° 0 mm 5 mps 759 mmHg 63%
    11:00 +2°C° 0 mm 5 mps 759 mmHg 59%
    12:00 +2°C° 0 mm 6 mps 759 mmHg 55%
    13:00 +2°C° 0 mm 6 mps 760 mmHg 51%
    14:00 +1°C° 0 mm 5 mps 760 mmHg 53%
    15:00 0°C° 0 mm 4 mps 761 mmHg 55%
    16:00 -1°C° 0 mm 4 mps 761 mmHg 58%
    17:00 0°C° 0 mm 3 mps 762 mmHg 62%
    18:00 -1°C° 0 mm 3 mps 763 mmHg 67%
    19:00 -2°C° 0 mm 2 mps 764 mmHg 72%
    20:00 -2°C° 0 mm 2 mps 764 mmHg 73%
    21:00 0°C° 0 mm 1 mps 764 mmHg 75%
    22:00 -1°C° 0 mm 1 mps 765 mmHg 77%
    23:00 0°C° 0 mm 1 mps 765 mmHg 77%

    28 November, Tuesday

    Time Temperature Precipitation Wind Pressure Humidity
    00:00 0°C° 0 mm 1 mps 765 mmHg 77%
    01:00 0°C° 0 mm 1 mps 765 mmHg 77%
    02:00 0°C° 0 mm 1 mps 765 mmHg 77%
    03:00 0°C° 0 mm 1 mps 764 mmHg 77%
    04:00 0°C° 0 mm 1 mps 764 mmHg 77%
    05:00 0°C° 0 mm 1 mps 764 mmHg 78%
    06:00 -2°C° 0 mm 2 mps 764 mmHg 78%
    07:00 -1°C° 0 mm 2 mps 764 mmHg 78%
    08:00 +1°C° 0 mm 3 mps 764 mmHg 71%
    09:00 +3°C° 0 mm 3 mps 763 mmHg 64%
    10:00 +6°C° 0 mm 4 mps 763 mmHg 58%
    11:00 +7°C° 0 mm 5 mps 762 mmHg 56%
    12:00 +9°C° 0 mm 5 mps 761 mmHg 54%
    13:00 +10°C° 0 mm 5 mps 760 mmHg 52%
    14:00 +10°C° 0 mm 5 mps 760 mmHg 56%
    15:00 +10°C° 0 mm 4 mps 760 mmHg 61%
    16:00 +8°C° 0 mm 4 mps 760 mmHg 65%
    17:00 +7°C° 0 mm 4 mps 760 mmHg 69%
    18:00 +7°C° 0 mm 4 mps 760 mmHg 73%
    19:00 +6°C° 0 mm 4 mps 760 mmHg 76%
    20:00 +7°C° 0 mm 3 mps 760 mmHg 78%
    21:00 +5°C° 0 mm 3 mps 760 mmHg 80%
    22:00 +5°C° 0 mm 3 mps 759 mmHg 81%
    23:00 +5°C° 0 mm 3 mps 759 mmHg 81%

    29 November, Wednesday

    Time Temperature Precipitation Wind Pressure Humidity
    00:00 +5°C° 0 mm 3 mps 759 mmHg 81%
    01:00 +5°C° 0 mm 3 mps 759 mmHg 81%
    02:00 +5°C° 0 mm 3 mps 759 mmHg 82%
    03:00 +5°C° 0 mm 3 mps 759 mmHg 83%
    04:00 +7°C° 0 mm 3 mps 759 mmHg 84%
    05:00 +7°C° 0 mm 2 mps 759 mmHg 85%
    06:00 +7°C° 0 mm 2 mps 760 mmHg 87%
    07:00 +7°C° 0 mm 2 mps 760 mmHg 88%
    08:00 +8°C° 0 mm 2 mps 761 mmHg 85%
    09:00 +9°C° 0 mm 2 mps 761 mmHg 82%
    10:00 +10°C° 0 mm 2 mps 762 mmHg 79%
    11:00 +10°C° 0 mm 3 mps 762 mmHg 73%
    12:00 +11°C° 0 mm 3 mps 761 mmHg 68%
    13:00 +11°C° 0 mm 3 mps 761 mmHg 62%
    14:00 +10°C° 0 mm 3 mps 762 mmHg 66%
    15:00 +9°C° 0 mm 2 mps 762 mmHg 69%
    16:00 +8°C° 0 mm 2 mps 763 mmHg 72%
    17:00 +8°C° 0 mm 1 mps 763 mmHg 76%
    18:00 +7°C° 0 mm 1 mps 764 mmHg 80%
    19:00 +6°C° 0 mm 1 mps 764 mmHg 84%
    20:00 +5°C° 0 mm 1 mps 764 mmHg 85%
    21:00 +5°C° 0 mm 1 mps 764 mmHg 85%
    22:00 +4°C° 0 mm 0 mps 764 mmHg 86%
    23:00 +3°C° 0 mm 0 mps 764 mmHg 86%
    Show more